Weather History for KCVG - August, 2014

Change the Weather History Date:

Thursday, August 14, 2014

  Actual Average Record
Temperature  
Mean Temperature 73 °F 75 °F  
Max Temperature 82 °F 85 °F 98 °F (1944)
Min Temperature 64 °F 65 °F 48 °F (1964)
Degree Days  
Heating Degree Days 0 0  
Month to date heating degree days 0 0  
Since 1 June heating degree days 8 15  
Since 1 July heating degree days 5 0  
Cooling Degree Days 8 10  
Month to date cooling degree days 120 149  
Year to date cooling degree days 745 808  
Since 1 June cooling degree days 611 714  
Growing Degree Days 23 (Base 50)    
Moisture  
Dew Point 58 °F    
Average Humidity 65    
Maximum Humidity 87    
Minimum Humidity 42    
Precipitation  
Precipitation 0.01 in 0.11 in 2.18 in (1966)
Month to date precipitation 1.97 1.58  
Year to date precipitation 28.49 27.96  
Snow  
Snow 0.00 in 0.00 in 0.00 in ()
Month to date snowfall 0.0 0.0  
Since 1 June snowfall 0.0 0.0  
Since 1 July snowfall 0.0 0.0  
Snow Depth 0.00 in    
Sea Level Pressure  
Sea Level Pressure 30.00 in    
Wind  
Wind Speed 6 mph (NW)    
Max Wind Speed 16 mph    
Max Gust Speed 20 mph    
Visibility 10 miles    
Events      
T = Trace of Precipitation, MM = Missing Value Source: NWS Daily Summary

Daily Weather History Graph

Daily Weather History Graph

Search for Another Location

Airport or City:

Trip Planner

Search our weather history database for the weather conditions in past years. The results will help you decide how hot, cold, wet, or windy it might be!

Date:

Astronomy

Aug. 14, 2014 Rise Set
Actual Time 6:51 AM EDT 8:34 PM EDT
Civil Twilight 6:22 AM EDT 9:03 PM EDT
Nautical Twilight 5:47 AM EDT 9:38 PM EDT
Astronomical Twilight 5:10 AM EDT 10:14 PM EDT
Moon 11:00 PM EDT (8/14) 11:24 AM EDT (8/14)
Length of Visible Light 14h 41m
Length of Day
13h 43m
Waning Gibbous, 79% of the Moon is Illuminated
Aug 14
Waning Gibbous
Aug 17
Last Quarter
Aug 25
New
Sep 2
First Quarter
Sep 8
Full

Hourly Weather History & Observations

Time (EDT) Temp. Heat Index Dew Point Humidity Pressure Visibility Wind Dir Wind Speed Gust Speed Precip Events Conditions
12:52 AM 66.0 °F - 57.0 °F 73% 30.02 in 10.0 mi WSW 4.6 mph - N/A   Overcast
1:52 AM 68.0 °F - 55.9 °F 65% 30.02 in 10.0 mi WNW 5.8 mph - N/A   Overcast
2:52 AM 66.0 °F - 57.9 °F 75% 30.01 in 10.0 mi West 8.1 mph - N/A   Overcast
3:52 AM 66.0 °F - 59.0 °F 78% 29.99 in 10.0 mi West 5.8 mph - 0.00 in   Overcast
4:52 AM 64.9 °F - 60.1 °F 84% 30.00 in 9.0 mi WNW 5.8 mph - 0.00 in   Overcast
5:52 AM 64.9 °F - 60.1 °F 84% 30.00 in 10.0 mi Calm Calm - 0.01 in   Overcast
6:52 AM 64.0 °F - 59.0 °F 84% 30.01 in 10.0 mi Calm Calm - N/A   Overcast
7:52 AM 64.9 °F - 60.1 °F 84% 30.04 in 10.0 mi Calm Calm - 0.00 in   Overcast
8:52 AM 68.0 °F - 61.0 °F 78% 30.04 in 10.0 mi Calm Calm - 0.00 in   Mostly Cloudy
9:52 AM 72.0 °F - 62.1 °F 71% 30.04 in 10.0 mi Calm Calm - N/A   Scattered Clouds
10:52 AM 73.0 °F - 60.1 °F 64% 30.04 in 10.0 mi Calm Calm - N/A   Scattered Clouds
11:52 AM 75.0 °F - 61.0 °F 62% 30.03 in 10.0 mi Calm Calm - N/A   Mostly Cloudy
12:52 PM 75.9 °F - 61.0 °F 60% 30.01 in 10.0 mi NW 5.8 mph - N/A   Mostly Cloudy
1:52 PM 78.1 °F - 62.1 °F 58% 29.99 in 10.0 mi West 6.9 mph - N/A   Mostly Cloudy
2:52 PM 81.0 °F 81.1 °F 57.9 °F 45% 29.98 in 10.0 mi North 12.7 mph - N/A   Scattered Clouds
3:52 PM 80.1 °F 80.4 °F 57.0 °F 45% 29.97 in 10.0 mi NW 10.4 mph - N/A   Scattered Clouds
4:52 PM 80.1 °F 80.1 °F 55.0 °F 42% 29.96 in 10.0 mi NNW 11.5 mph 19.6 mph N/A   Partly Cloudy
5:52 PM 80.1 °F 80.1 °F 55.0 °F 42% 29.96 in 10.0 mi NNW 13.8 mph - N/A   Partly Cloudy
6:52 PM 79.0 °F - 55.0 °F 44% 29.96 in 10.0 mi NNW 10.4 mph - N/A   Partly Cloudy
7:52 PM 75.9 °F - 54.0 °F 46% 29.96 in 10.0 mi NNW 6.9 mph - N/A   Partly Cloudy
8:52 PM 73.0 °F - 53.1 °F 49% 29.97 in 10.0 mi NNW 6.9 mph - N/A   Partly Cloudy
9:52 PM 70.0 °F - 53.1 °F 55% 29.99 in 10.0 mi NNW 4.6 mph - N/A   Partly Cloudy
10:52 PM 69.1 °F - 52.0 °F 54% 30.01 in 10.0 mi North 6.9 mph - N/A   Partly Cloudy
11:52 PM 66.0 °F - 53.1 °F 63% 30.01 in 10.0 mi North 5.8 mph - N/A   Partly Cloudy